METOP-B

Last updated on Sun Dec 07 2025 00:02:22 GMT+0000 (Coordinated Universal Time)

1 38771U 12049A 25340.59844088 .00000300 00000+0 15710-3 0 9991 2 38771 98.6808 30.6611 0002643 157.7358 202.3935 14.21404997685908
UTC large
Height (km)
Speed (km/s)
/
Latitude / Longitude
Inclination (degrees)
Orbital Period (minutes)
Azimuth
Elevation
Range (km)
Doppler Factor

Next 0 passes for location: London (51.5072 / 0.1276)

Sorry there are no passes over London.